Fairfield, IL

2:38 PM CDT on July 28, 2017 (GMT -0500)
Fairfield Municipal

Weather History for KFWC - October, 2012

Change the Weather History Date:

Tuesday, October 2, 2012

  Actual Average (KEVV) Record (KEVV)
Temperature  
Mean Temperature 56 °F -  
Max Temperature 57 °F 74 °F 94 °F (1953)
Min Temperature 55 °F 48 °F 33 °F (1974)
Degree Days  
Heating Degree Days 9    
Growing Degree Days 6 (Base 50)    
Moisture  
Dew Point 53 °F    
Average Humidity 90    
Maximum Humidity 94    
Minimum Humidity 82    
Precipitation  
Precipitation 0.12 in - - ()
Sea Level Pressure  
Sea Level Pressure 29.79 in    
Wind  
Wind Speed 6 mph (NNW)    
Max Wind Speed 10 mph    
Max Gust Speed -    
Visibility 6 miles    
Events Rain    
Averages and records for this station are not official NWS values.
T = Trace of Precipitation, MM = Missing Value Source: NWS Daily Summary

Daily Weather History Graph

Daily Weather History Graph

Search for Another Location

Airport or City:

Trip Planner

Search our weather history database for the weather conditions in past years. The results will help you decide how hot, cold, wet, or windy it might be!

Date:

Astronomy

Oct. 02, 2012 Rise Set
Actual Time 6:50 AM CDT 6:34 PM CDT
Civil Twilight 6:24 AM CDT 7:00 PM CDT
Nautical Twilight 5:53 AM CDT 7:31 PM CDT
Astronomical Twilight 5:22 AM CDT 8:01 PM CDT
Moon 7:49 PM CDT (10/2) 9:15 AM CDT (10/2)
Length of Visible Light 12h 36m
Length of Day
11h 43m
Waning Gibbous, 94% of the Moon is Illuminated
Oct 2
Waning Gibbous
Oct 8
Last Quarter
Oct 15
New
Oct 21
First Quarter
Oct 29
Full

Hourly Weather History & Observations

Time (CDT) Temp. Dew Point Humidity Pressure Visibility Wind Dir Wind Speed Gust Speed Precip Events Conditions
12:15 AM 57.2 °F 51.8 °F 82% 29.71 in 10.0 mi North 9.2 mph - N/A   Overcast
12:35 AM 57.2 °F 51.8 °F 82% 29.70 in 10.0 mi North 9.2 mph - N/A   Overcast
12:55 AM 57.2 °F 51.8 °F 82% 29.70 in 10.0 mi North 9.2 mph - N/A   Mostly Cloudy
1:35 AM 57.2 °F 51.8 °F 82% 29.71 in 10.0 mi North 6.9 mph - N/A   Mostly Cloudy
1:55 AM 55.4 °F 51.8 °F 88% 29.71 in 10.0 mi NNW 5.8 mph - N/A   Scattered Clouds
2:15 AM 55.4 °F 51.8 °F 88% 29.71 in 10.0 mi NNW 4.6 mph - N/A   Scattered Clouds
2:35 AM 55.4 °F 51.8 °F 88% 29.71 in 10.0 mi NNW 4.6 mph - N/A   Mostly Cloudy
2:55 AM 55.4 °F 51.8 °F 88% 29.70 in 10.0 mi NNW 5.8 mph - N/A   Overcast
3:15 AM 55.4 °F 51.8 °F 88% 29.70 in 10.0 mi NNW 5.8 mph - N/A   Overcast
3:35 AM 55.4 °F 51.8 °F 88% 29.70 in 10.0 mi NNW 6.9 mph - N/A   Overcast
3:55 AM 55.4 °F 51.8 °F 88% 29.70 in 10.0 mi North 9.2 mph - N/A   Overcast
4:15 AM 55.4 °F 50.0 °F 82% 29.70 in 10.0 mi NNW 6.9 mph - N/A   Overcast
4:35 AM 55.4 °F 50.0 °F 82% 29.71 in 10.0 mi NNW 5.8 mph - N/A   Overcast
4:55 AM 55.4 °F 50.0 °F 82% 29.71 in 10.0 mi NNW 6.9 mph - N/A   Overcast
5:55 AM 55.4 °F 50.0 °F 82% 29.73 in 10.0 mi North 10.4 mph - N/A   Overcast
6:35 AM 55.4 °F 51.8 °F 88% 29.74 in 10.0 mi NNW 10.4 mph - N/A   Overcast
6:55 AM 55.4 °F 51.8 °F 88% 29.74 in 10.0 mi NNW 8.1 mph - N/A   Overcast
7:37 AM 55.4 °F 51.8 °F 88% 29.75 in 10.0 mi NNW 8.1 mph - N/A   Overcast
8:00 AM 55.4 °F 51.8 °F 88% 29.75 in 10.0 mi NNW 8.1 mph - N/A   Drizzle
8:17 AM 55.4 °F 51.8 °F 88% 29.76 in 7.0 mi NNW 8.1 mph - N/A   Drizzle
8:55 AM 55.4 °F 51.8 °F 88% 29.77 in 4.0 mi North 6.9 mph - 0.01 in   Drizzle
9:15 AM 55.4 °F 51.8 °F 88% 29.77 in 5.0 mi North 6.9 mph - N/A   Drizzle
9:35 AM 55.4 °F 53.6 °F 94% 29.77 in 3.0 mi North 6.9 mph - N/A   Drizzle
9:55 AM 55.4 °F 53.6 °F 94% 29.78 in 4.0 mi North 5.8 mph - 0.01 in Rain Rain
10:15 AM 55.4 °F 53.6 °F 94% 29.78 in 4.0 mi North 6.9 mph - N/A   Light Drizzle
10:35 AM 57.2 °F 53.6 °F 88% 29.78 in 3.0 mi North 6.9 mph - N/A   Light Drizzle
10:55 AM 57.2 °F 53.6 °F 88% 29.78 in 5.0 mi North 6.9 mph - N/A   Overcast
11:15 AM 57.2 °F 53.6 °F 88% 29.78 in 4.0 mi North 6.9 mph - N/A   Overcast
11:35 AM 57.2 °F 53.6 °F 88% 29.79 in 2.5 mi North 5.8 mph - N/A Rain Light Rain
11:55 AM 57.2 °F 53.6 °F 88% 29.79 in 4.0 mi North 5.8 mph - N/A   Overcast
12:15 PM 57.2 °F 53.6 °F 88% 29.80 in 2.5 mi NNW 5.8 mph - N/A   Drizzle
12:35 PM 57.2 °F 53.6 °F 88% 29.79 in 2.0 mi North 5.8 mph - N/A   Drizzle
12:55 PM 55.4 °F 53.6 °F 94% 29.79 in 2.0 mi NNW 4.6 mph - 0.01 in   Heavy Drizzle
1:15 PM 57.2 °F 53.6 °F 88% 29.79 in 2.5 mi NNW 6.9 mph - N/A   Light Drizzle
1:35 PM 55.4 °F 53.6 °F 94% 29.79 in 4.0 mi NNW 3.5 mph - N/A   Light Drizzle
1:55 PM 57.2 °F 53.6 °F 88% 29.79 in 2.0 mi NW 3.5 mph - N/A   Drizzle
2:15 PM 55.4 °F 53.6 °F 94% 29.79 in 1.5 mi NW 3.5 mph - N/A   Drizzle
2:35 PM 55.4 °F 53.6 °F 94% 29.79 in 1.5 mi NW 4.6 mph - N/A   Drizzle
2:55 PM 55.4 °F 53.6 °F 94% 29.79 in 1.2 mi NW 3.5 mph - 0.01 in   Drizzle
3:15 PM 57.2 °F 53.6 °F 88% 29.80 in 1.5 mi Calm Calm - N/A   Drizzle
3:35 PM 57.2 °F 53.6 °F 88% 29.81 in 1.5 mi Calm Calm - 0.01 in   Heavy Drizzle
3:55 PM 57.2 °F 55.4 °F 94% 29.81 in 1.8 mi WNW 3.5 mph - 0.02 in   Heavy Drizzle
4:15 PM 57.2 °F 55.4 °F 94% 29.81 in 2.5 mi Calm Calm - 0.01 in   Drizzle
4:35 PM 57.2 °F 55.4 °F 94% 29.81 in 2.5 mi Calm Calm - 0.01 in   Drizzle
4:55 PM 57.2 °F 55.4 °F 94% 29.82 in 2.5 mi Calm Calm - 0.01 in   Heavy Drizzle
5:15 PM 57.2 °F 55.4 °F 94% 29.82 in 2.0 mi Calm Calm - 0.01 in   Heavy Drizzle
5:35 PM 57.2 °F 55.4 °F 94% 29.83 in 2.5 mi Calm Calm - 0.02 in   Drizzle
5:55 PM 57.2 °F 55.4 °F 94% 29.83 in 2.5 mi Calm Calm - 0.02 in   Drizzle
6:15 PM 57.2 °F 53.6 °F 88% 29.84 in 5.0 mi NW 3.5 mph - 0.01 in   Heavy Drizzle
6:35 PM 55.4 °F 53.6 °F 94% 29.84 in 4.0 mi WNW 4.6 mph - 0.02 in   Drizzle
6:55 PM 55.4 °F 53.6 °F 94% 29.84 in 5.0 mi Calm Calm - 0.03 in   Drizzle
7:15 PM 55.4 °F 53.6 °F 94% 29.85 in 5.0 mi NW 3.5 mph - N/A   Light Drizzle
7:35 PM 55.4 °F 53.6 °F 94% 29.85 in 7.0 mi Calm Calm - N/A   Overcast
7:55 PM 55.4 °F 53.6 °F 94% 29.86 in 7.0 mi Calm Calm - N/A   Overcast
8:15 PM 55.4 °F 53.6 °F 94% 29.86 in 10.0 mi Calm Calm - N/A   Overcast
8:35 PM 55.4 °F 53.6 °F 94% 29.87 in 7.0 mi Calm Calm - N/A   Overcast
8:55 PM 55.4 °F 53.6 °F 94% 29.87 in 7.0 mi Calm Calm - N/A   Overcast
9:15 PM 55.4 °F 53.6 °F 94% 29.88 in 7.0 mi WSW 3.5 mph - N/A   Overcast
9:35 PM 55.4 °F 53.6 °F 94% 29.88 in 7.0 mi Calm Calm - N/A   Overcast
9:55 PM 55.4 °F 53.6 °F 94% 29.88 in 7.0 mi Calm Calm - N/A   Overcast
10:15 PM 55.4 °F 53.6 °F 94% 29.89 in 7.0 mi Calm Calm - N/A   Overcast
10:35 PM 55.4 °F 53.6 °F 94% 29.89 in 7.0 mi Calm Calm - N/A   Overcast
10:55 PM 55.4 °F 53.6 °F 94% 29.90 in 7.0 mi Calm Calm - N/A   Overcast
11:15 PM 55.4 °F 53.6 °F 94% 29.89 in 5.0 mi Calm Calm - N/A   Overcast
11:35 PM 55.4 °F 53.6 °F 94% 29.90 in 7.0 mi Calm Calm - N/A   Overcast
11:55 PM 55.4 °F 53.6 °F 94% 29.90 in 5.0 mi SSW 3.5 mph - N/A   Light Drizzle